Location: Gila Cliff Dwellings National Monument
(33.2240°N, 108.2417°W)
Time: 09:03:18
(UTC-06:00)

Cosmos 2322 Rocket - Visible Passes

Search period start: 24 April 2017 00:00
Search period end: 04 May 2017 00:00
Orbit: 833 x 850 km, 71.0° (Epoch: 22 April)

Date Brightness Start Highest point End Pass type
(mag) Time Alt. Az. Time Alt. Az. Time Alt. Az.
24 Apr 3.4 21:44:57 10° SW 21:50:12 41° WNW 21:55:30 10° N visible
25 Apr 3.4 21:29:53 10° SW 21:35:11 44° WNW 21:40:32 10° N visible
26 Apr 3.3 21:14:49 10° SW 21:20:10 46° WNW 21:25:34 10° N visible
27 Apr 3.2 20:59:45 10° SW 21:05:09 49° WNW 21:10:36 10° N visible
28 Apr 4.1 05:58:07 10° N 06:03:21 36° ENE 06:08:33 10° SE visible
28 Apr 3.1 20:44:42 10° SW 20:50:09 52° WNW 20:55:38 10° N visible
29 Apr 4.2 05:43:10 10° N 05:48:19 35° ENE 05:53:27 10° SE visible
29 Apr 3.1 20:29:40 10° SW 20:35:08 55° WNW 20:40:39 10° N visible
30 Apr 4.2 05:28:13 10° N 05:33:18 33° ENE 05:38:22 10° SE visible
30 Apr 3.0 20:14:37 10° SSW 20:20:07 59° WNW 20:25:40 10° NNE visible
01 May 4.3 05:13:17 10° N 05:18:17 31° ENE 05:23:16 10° SE visible
02 May 4.3 04:58:20 10° N 05:03:15 29° ENE 05:08:10 10° ESE visible
03 May 4.4 04:43:24 10° N 04:48:14 28° ENE 04:53:03 10° ESE visible
